Weather History for KMMV - December, 2012

Change the Weather History Date:

Saturday, December 29, 2012

  Actual Average Record
Temperature  
Mean Temperature 37 °F 39 °F  
Max Temperature 40 °F 46 °F 66 °F (1929)
Min Temperature 34 °F 33 °F 20 °F (1916)
Degree Days  
Heating Degree Days 28 26  
Month to date heating degree days 648 732  
Since 1 July heating degree days 1591 1954  
Cooling Degree Days 0 0  
Month to date cooling degree days 0 0  
Year to date cooling degree days 300 215  
Moisture  
Dew Point 32 °F    
Average Humidity 81    
Maximum Humidity 92    
Minimum Humidity 70    
Precipitation  
Precipitation 0.01 in 0.17 in 3.35 in (1937)
Month to date precipitation 7.81 5.75  
Year to date precipitation 49.53 39.40  
Snow  
Snow 0.00 in - - ()
Month to date snowfall 0.0  
Snow Depth 0.00 in    
Sea Level Pressure  
Sea Level Pressure 30.20 in    
Wind  
Wind Speed 1 mph (NNE)    
Max Wind Speed 7 mph    
Max Gust Speed 29 mph    
Visibility 10 miles    
Events Rain    
T = Trace of Precipitation, MM = Missing Value Source: NWS Daily Summary

Daily Weather History Graph

Daily Weather History Graph

Search for Another Location

Airport or City:

Trip Planner

Search our weather history database for the weather conditions in past years. The results will help you decide how hot, cold, wet, or windy it might be!

Date:

Astronomy

Dec. 29, 2012 Rise Set
Actual Time 7:51 AM PST 4:38 PM PST
Civil Twilight 7:17 AM PST 5:12 PM PST
Nautical Twilight 6:40 AM PST 5:49 PM PST
Astronomical Twilight 6:04 AM PST 6:25 PM PST
Moon 6:22 PM PST (12/29) 8:23 AM PST (12/29)
Length of Visible Light 9h 55m
Length of Day
8h 47m
Full, 98% of the Moon is Illuminated
Dec 29
Full
Jan 4
Last Quarter
Jan 11
New
Jan 18
First Quarter
Jan 26
Full

Hourly Weather History & Observations

Time (PST) Temp. Windchill Dew Point Humidity Pressure Visibility Wind Dir Wind Speed Gust Speed Precip Events Conditions
12:53 AM 36.0 °F 31.1 °F 30.0 °F 79% 30.18 in 10.0 mi North 5.8 mph - N/A   Mostly Cloudy
1:53 AM 36.0 °F 32.1 °F 30.0 °F 79% 30.18 in 10.0 mi NNE 4.6 mph - N/A   Overcast
2:53 AM 34.0 °F - 30.0 °F 85% 30.19 in 10.0 mi Calm Calm - N/A   Overcast
3:53 AM 34.0 °F 31.0 °F 28.9 °F 82% 30.21 in 10.0 mi NNW 3.5 mph - 0.01 in   Overcast
4:53 AM 35.1 °F - 30.0 °F 82% 30.20 in 10.0 mi Calm Calm - N/A   Overcast
5:53 AM 35.1 °F 32.2 °F 30.0 °F 82% 30.21 in 10.0 mi NNE 3.5 mph - N/A   Overcast
6:53 AM 34.0 °F - 28.9 °F 82% 30.22 in 10.0 mi Calm Calm - N/A   Overcast
7:53 AM 35.1 °F - 30.0 °F 82% 30.22 in 10.0 mi Calm Calm - N/A   Overcast
8:53 AM 36.0 °F - 30.0 °F 79% 30.23 in 10.0 mi Calm Calm - N/A   Overcast
9:53 AM 37.0 °F - 30.0 °F 76% 30.25 in 10.0 mi Calm Calm - N/A   Overcast
10:34 AM 37.4 °F - 30.2 °F 75% 30.24 in 10.0 mi Calm Calm - N/A   Overcast
10:53 AM 37.9 °F - 30.0 °F 73% 30.24 in 10.0 mi Calm Calm - N/A   Overcast
11:53 AM 39.0 °F 35.7 °F 30.0 °F 70% 30.21 in 10.0 mi East 4.6 mph - N/A   Overcast
12:53 PM 39.9 °F - 30.0 °F 68% 30.19 in 10.0 mi Calm Calm - N/A   Overcast
1:13 PM 39.2 °F - 30.2 °F 70% 30.19 in 10.0 mi Calm Calm - N/A   Overcast
1:22 PM 39.2 °F - 30.2 °F 70% 30.19 in 10.0 mi Calm Calm - N/A   Overcast
1:46 PM 39.2 °F - 30.2 °F 70% 30.18 in 10.0 mi Calm Calm - N/A   Overcast
1:53 PM 39.0 °F - 30.9 °F 73% 30.18 in 10.0 mi Calm Calm - N/A   Overcast
2:53 PM 39.9 °F - 32.0 °F 73% 30.18 in 10.0 mi Calm Calm - 0.00 in Rain Light Rain
3:53 PM 39.9 °F - 32.0 °F 73% 30.17 in 10.0 mi Calm Calm - 0.00 in   Overcast
4:53 PM 37.9 °F 35.5 °F 33.1 °F 83% 30.17 in 10.0 mi ESE 3.5 mph - N/A   Mostly Cloudy
5:53 PM 39.0 °F - 33.1 °F 79% 30.18 in 10.0 mi Calm Calm - N/A   Overcast
6:13 PM 39.2 °F - 33.8 °F 81% 30.17 in 10.0 mi Calm Calm - N/A   Overcast
6:53 PM 39.0 °F - 33.1 °F 79% 30.19 in 10.0 mi Calm Calm - N/A   Overcast
7:45 PM 39.2 °F - 33.8 °F 81% 30.19 in 10.0 mi Calm Calm - N/A   Overcast
7:53 PM 39.0 °F - 34.0 °F 82% 30.19 in 10.0 mi Calm Calm - N/A   Overcast
8:53 PM 37.9 °F - 33.1 °F 83% 30.19 in 10.0 mi Calm Calm - N/A   Mostly Cloudy
9:45 PM 35.6 °F - 33.8 °F 93% 30.20 in 8.0 mi Calm Calm - N/A   Overcast
9:53 PM 37.0 °F - 33.1 °F 86% 30.20 in 7.0 mi Calm Calm - N/A   Overcast
10:04 PM 35.6 °F - 33.8 °F 93% 30.20 in 7.0 mi Calm Calm - N/A   Overcast
10:53 PM 36.0 °F - 34.0 °F 93% 30.22 in 8.0 mi Calm Calm - N/A   Overcast
11:03 PM 35.6 °F 32.8 °F 33.8 °F 93% 30.22 in 7.0 mi North 3.5 mph - N/A   Overcast
11:53 PM 37.0 °F 34.5 °F 34.0 °F 89% 30.23 in 5.0 mi NE 3.5 mph - N/A   Overcast